3km 2016

PlaceNomPrenomDossardCatégorieSexeTempsPl. Cat.
1BEMBARONKarell2256MHH00:09:191
2GREGOIRERomain2272MHH00:09:532
3PORCHERGuilhem2261MHH00:09:553
4KERAUDRENTitouan2271BHH00:09:561
5DE LIGNIERESPaul2260MHH00:10:004
6MARIATom2281BHH00:10:022
7BOUN NHANGAugustin2277MHH00:10:125
8LEFORESTIERMatteo2264BHH00:10:133
9JORANDLouis2254MHH00:10:256
10GRANNECTheo2253BHH00:10:464
11SOBHIMeyren2288BFF00:11:001
12TUGDUALCharles antoine2275MHH00:11:077
13MOULINMatthieu2273BHH00:11:075
14PORCHERAlexis2262MHH00:11:238
15MIALHEMatthias2265MHH00:11:309
16BARDETJules2280BHH00:11:486
17PORCHERVictorien2263BHH00:11:537
18MERLUSClément2274BHH00:11:538
19BROUDICSimon2255MHH00:12:0110
20BENHARISalma2294MFF00:12:061
21BOSSEManon2291BFF00:12:072
22DELISLEAlan2251BHH00:12:259
23CLEMENTJeanne2293BFF00:12:323
24DELOUISJean2276BHH00:12:3210
25JORANDAntoine2290MHH00:12:3211
26PAYETThéo2287BHH00:12:4612
27MENEZThomas2269BHH00:12:4613
28BOSSECamille2289BFF00:13:254
29BOSSEValentine2292BFF00:13:265
30COSSONPauline2278BFF00:13:436
31COSSONPierre2279MHH00:13:5212
32DOUSSETManon2252MFF00:14:042
33BERESTElouanne2285BHH00:14:5214
34CASSANGAntoine2286BHH00:14:5315
35REUCHERONLeane2270BFF00:15:167

Vous avez aimé? Partagez notre article!

Les commentaires sont clos.